| time (UTC) | temp F | wind direction | speed knots | gust knots | rain 1hr in | rain 24hr in | rain mn in | humidity % | barometer mb |
| 20260509055402 | 51 | 249 | 0.0 | 0.0 | 0.00 | 0.00 | 0.00 | 84 | 1012.4 |
| 20260509054903 | 51 | 249 | 0.0 | 0.0 | 0.00 | 0.00 | 0.00 | 84 | 1012.4 |
| 20260509054404 | 51 | 249 | 0.0 | 0.0 | 0.00 | 0.00 | 0.00 | 84 | 1012.5 |
| 20260509053903 | 52 | 249 | 0.0 | 0.0 | 0.00 | 0.00 | 0.00 | 84 | 1012.5 |
| 20260509053402 | 52 | 249 | 0.0 | 0.0 | 0.00 | 0.00 | 0.00 | 84 | 1012.5 |
| 20260509052904 | 52 | 249 | 0.0 | 0.9 | 0.00 | 0.00 | 0.00 | 83 | 1012.6 |
| 20260509051903 | 52 | 249 | 0.0 | 0.0 | 0.00 | 0.00 | 0.00 | 83 | 1012.6 |
| 20260509051404 | 52 | 249 | 0.0 | 0.0 | 0.00 | 0.00 | 0.00 | 83 | 1012.5 |
| 20260509050903 | 52 | 249 | 0.0 | 0.0 | 0.00 | 0.00 | 0.00 | 83 | 1012.5 |
| 20260509050403 | 52 | 249 | 0.0 | 0.0 | 0.00 | 0.00 | 0.00 | 83 | 1012.5 |
| 20260509045904 | 52 | 249 | 0.0 | 0.0 | 0.00 | 0.00 | 0.00 | 82 | 1012.8 |
| 20260509045403 | 52 | 249 | 0.0 | 0.0 | 0.00 | 0.00 | 0.00 | 82 | 1012.8 |
| 20260509044904 | 53 | 249 | 0.0 | 0.0 | 0.00 | 0.00 | 0.00 | 82 | 1012.8 |
| 20260509044403 | 53 | 249 | 0.0 | 0.0 | 0.00 | 0.00 | 0.00 | 82 | 1012.8 |
| 20260509043905 | 53 | 249 | 0.0 | 0.0 | 0.00 | 0.00 | 0.00 | 81 | 1012.8 |
| 20260509043403 | 53 | 249 | 0.0 | 0.0 | 0.00 | 0.00 | 0.00 | 81 | 1012.8 |
| 20260509042903 | 53 | 249 | 0.0 | 0.0 | 0.00 | 0.00 | 0.00 | 81 | 1012.8 |
| 20260509042404 | 53 | 249 | 0.0 | 0.0 | 0.00 | 0.00 | 0.00 | 80 | 1012.8 |
| 20260509041403 | 53 | 249 | 0.0 | 0.9 | 0.00 | 0.00 | 0.00 | 80 | 1012.7 |
| 20260509040904 | 54 | 249 | 0.0 | 0.0 | 0.00 | 0.00 | 0.00 | 79 | 1012.7 |
| 20260509040403 | 54 | 249 | 0.0 | 0.0 | 0.00 | 0.00 | 0.00 | 79 | 1012.8 |
| 20260509035903 | 54 | 249 | 0.0 | 0.0 | 0.00 | 0.00 | 0.00 | 79 | 1012.8 |
| 20260509035404 | 54 | 249 | 0.0 | 0.0 | 0.00 | 0.00 | 0.00 | 79 | 1012.8 |
| 20260509034903 | 54 | 249 | 0.0 | 0.0 | 0.00 | 0.00 | 0.00 | 78 | 1012.8 |
| 20260509033904 | 54 | 249 | 0.0 | 0.0 | 0.00 | 0.00 | 0.00 | 78 | 1012.9 |
| 20260509032404 | 55 | 249 | 0.0 | 0.0 | 0.00 | 0.00 | 0.00 | 77 | 1013.3 |
| 20260509031903 | 55 | 249 | 0.0 | 0.9 | 0.00 | 0.00 | 0.00 | 77 | 1013.3 |
| 20260509031403 | 55 | 249 | 0.0 | 0.0 | 0.00 | 0.00 | 0.00 | 77 | 1013.3 |
| 20260509030903 | 55 | 249 | 0.0 | 0.9 | 0.00 | 0.00 | 0.00 | 77 | 1013.3 |
| 20260509025904 | 56 | 249 | 0.0 | 0.0 | 0.00 | 0.00 | 0.00 | 75 | 1013.4 |
| 20260509025404 | 56 | 249 | 0.0 | 0.0 | 0.00 | 0.00 | 0.00 | 75 | 1013.4 |
| 20260509024904 | 56 | 249 | 0.0 | 0.0 | 0.00 | 0.00 | 0.00 | 75 | 1013.4 |
| 20260509024403 | 56 | 249 | 0.0 | 0.0 | 0.00 | 0.00 | 0.00 | 75 | 1013.1 |
| 20260509023903 | 56 | 249 | 0.0 | 0.0 | 0.00 | 0.00 | 0.00 | 74 | 1013.1 |
| 20260509023404 | 56 | 249 | 0.0 | 0.0 | 0.00 | 0.00 | 0.00 | 73 | 1013.1 |
| 20260509022404 | 57 | 249 | 0.0 | 0.0 | 0.00 | 0.00 | 0.00 | 72 | 1013.1 |
| 20260509021904 | 57 | 249 | 0.0 | 0.0 | 0.00 | 0.00 | 0.00 | 72 | 1013.1 |
| 20260509021403 | 57 | 249 | 0.0 | 0.0 | 0.00 | 0.00 | 0.00 | 72 | 1013.0 |
| 20260509020903 | 57 | 249 | 0.0 | 0.0 | 0.00 | 0.00 | 0.00 | 71 | 1013.0 |
| 20260509020404 | 58 | 249 | 0.0 | 0.0 | 0.00 | 0.00 | 0.00 | 70 | 1013.0 |
| 20260509015903 | 58 | 249 | 0.0 | 0.0 | 0.00 | 0.00 | 0.00 | 70 | 1012.7 |
| 20260509014904 | 58 | 249 | 0.0 | 0.0 | 0.00 | 0.00 | 0.00 | 69 | 1012.7 |
| 20260509014403 | 59 | 249 | 0.0 | 0.0 | 0.00 | 0.00 | 0.00 | 70 | 1012.7 |
| 20260509013903 | 59 | 249 | 0.0 | 0.0 | 0.00 | 0.00 | 0.00 | 70 | 1012.7 |
| 20260509013404 | 59 | 249 | 0.0 | 0.0 | 0.00 | 0.00 | 0.00 | 69 | 1012.7 |
| 20260509012903 | 60 | 249 | 0.0 | 0.0 | 0.00 | 0.00 | 0.00 | 68 | 1012.9 |
| 20260509011904 | 60 | 249 | 0.0 | 0.0 | 0.00 | 0.00 | 0.00 | 67 | 1012.9 |
| 20260509011403 | 61 | 249 | 0.0 | 0.0 | 0.00 | 0.00 | 0.00 | 67 | 1012.9 |
| 20260509010903 | 61 | 249 | 0.0 | 0.0 | 0.00 | 0.00 | 0.00 | 67 | 1012.9 |
| 20260509010403 | 61 | 249 | 0.0 | 0.0 | 0.00 | 0.00 | 0.00 | 66 | 1012.9 |
| 20260509005904 | 62 | 249 | 0.0 | 0.0 | 0.00 | 0.00 | 0.00 | 64 | 1012.9 |
| 20260509004903 | 62 | 249 | 0.0 | 0.0 | 0.00 | 0.00 | 0.00 | 67 | 1012.8 |
| 20260509003903 | 63 | 249 | 0.0 | 0.0 | 0.00 | 0.00 | 0.00 | 64 | 1012.8 |
| 20260509003403 | 63 | 249 | 0.0 | 0.0 | 0.00 | 0.00 | 0.00 | 64 | 1012.8 |
| 20260509002904 | 64 | 249 | 0.0 | 0.0 | 0.00 | 0.00 | 0.00 | 64 | 1012.9 |
| 20260509002403 | 64 | 249 | 0.0 | 0.0 | 0.00 | 0.00 | 0.00 | 63 | 1012.9 |
| 20260509001904 | 64 | 249 | 0.0 | 0.0 | 0.00 | 0.00 | 0.00 | 64 | 1012.9 |
| 20260509001403 | 65 | 249 | 0.0 | 0.9 | 0.00 | 0.00 | 0.00 | 61 | 1012.9 |
| 20260509000904 | 65 | 249 | 0.0 | 0.9 | 0.00 | 0.00 | 0.00 | 59 | 1012.9 |
| 20260509000404 | 65 | 249 | 0.0 | 1.7 | 0.00 | 0.00 | 0.00 | 60 | 1012.9 |
| 20260508235903 | 65 | 249 | 0.0 | 0.0 | 0.00 | 0.00 | 0.00 | 61 | 1012.8 |
| 20260508235403 | 66 | 249 | 0.0 | 0.0 | 0.00 | 0.00 | 0.00 | 60 | 1012.8 |
| 20260508234905 | 66 | 249 | 0.0 | 0.0 | 0.00 | 0.00 | 0.00 | 59 | 1012.8 |
| 20260508233904 | 66 | 249 | 0.9 | 1.7 | 0.00 | 0.00 | 0.00 | 55 | 1012.7 |
| 20260508233404 | 66 | 257 | 0.0 | 0.9 | 0.00 | 0.00 | 0.00 | 55 | 1012.7 |
| 20260508232903 | 67 | 257 | 0.0 | 1.7 | 0.00 | 0.00 | 0.00 | 57 | 1012.8 |
| 20260508232404 | 67 | 263 | 0.9 | 2.6 | 0.00 | 0.00 | 0.00 | 55 | 1012.8 |
| 20260508231904 | 67 | 250 | 0.0 | 1.7 | 0.00 | 0.00 | 0.00 | 54 | 1012.8 |
| 20260508231403 | 67 | 243 | 0.9 | 2.6 | 0.00 | 0.00 | 0.00 | 53 | 1012.8 |
| 20260508230903 | 67 | 236 | 0.9 | 2.6 | 0.00 | 0.00 | 0.00 | 53 | 1012.8 |
| 20260508230405 | 67 | 208 | 0.0 | 1.7 | 0.00 | 0.00 | 0.00 | 53 | 1012.8 |
| 20260508225904 | 67 | 205 | 1.7 | 2.6 | 0.00 | 0.00 | 0.00 | 52 | 1012.9 |
| 20260508224905 | 68 | 248 | 0.9 | 2.6 | 0.00 | 0.00 | 0.00 | 51 | 1012.9 |
| 20260508224403 | 68 | 243 | 0.9 | 1.7 | 0.00 | 0.00 | 0.00 | 51 | 1013.1 |
| 20260508223903 | 68 | 251 | 0.0 | 0.9 | 0.00 | 0.00 | 0.00 | 50 | 1013.1 |
| 20260508223404 | 68 | 251 | 0.9 | 2.6 | 0.00 | 0.00 | 0.00 | 47 | 1013.1 |
| 20260508222404 | 68 | 251 | 0.9 | 2.6 | 0.00 | 0.00 | 0.00 | 46 | 1013.3 |
| 20260508221404 | 69 | 249 | 1.7 | 4.3 | 0.00 | 0.00 | 0.00 | 44 | 1012.6 |
| 20260508220903 | 69 | 260 | 1.7 | 2.6 | 0.00 | 0.00 | 0.00 | 44 | 1012.6 |
| 20260508220404 | 69 | 224 | 1.7 | 2.6 | 0.00 | 0.00 | 0.00 | 43 | 1012.6 |
| 20260508215903 | 69 | 230 | 1.7 | 2.6 | 0.00 | 0.00 | 0.00 | 41 | 1012.6 |
| 20260508215403 | 70 | 241 | 1.7 | 4.3 | 0.00 | 0.00 | 0.00 | 41 | 1012.6 |
| 20260508214904 | 70 | 265 | 0.9 | 1.7 | 0.00 | 0.00 | 0.00 | 41 | 1012.6 |
| 20260508214403 | 70 | 263 | 1.7 | 6.1 | 0.00 | 0.00 | 0.00 | 40 | 1012.6 |
| 20260508213904 | 70 | 260 | 1.7 | 5.2 | 0.00 | 0.00 | 0.00 | 41 | 1012.6 |
| 20260508213405 | 70 | 256 | 2.6 | 5.2 | 0.00 | 0.00 | 0.00 | 39 | 1012.6 |
| 20260508212903 | 70 | 223 | 2.6 | 5.2 | 0.00 | 0.00 | 0.00 | 38 | 1012.6 |
| 20260508212403 | 70 | 264 | 1.7 | 4.3 | 0.00 | 0.00 | 0.00 | 36 | 1013.0 |
| 20260508211404 | 70 | 214 | 0.9 | 2.6 | 0.00 | 0.00 | 0.00 | 35 | 1013.0 |
| 20260508210904 | 71 | 252 | 1.7 | 4.3 | 0.00 | 0.00 | 0.00 | 34 | 1013.0 |
| 20260508205905 | 71 | 202 | 1.7 | 5.2 | 0.00 | 0.00 | 0.00 | 33 | 1013.1 |
| 20260508205403 | 71 | 223 | 1.7 | 5.2 | 0.00 | 0.00 | 0.00 | 29 | 1013.1 |
| 20260508204903 | 71 | 159 | 1.7 | 4.3 | 0.00 | 0.00 | 0.00 | 31 | 1013.1 |
| 20260508204405 | 72 | 168 | 1.7 | 6.1 | 0.00 | 0.00 | 0.00 | 33 | 1013.1 |
| 20260508203904 | 72 | 117 | 2.6 | 6.1 | 0.00 | 0.00 | 0.00 | 32 | 1013.1 |
| 20260508203404 | 71 | 226 | 2.6 | 5.2 | 0.00 | 0.00 | 0.00 | 32 | 1013.1 |
| 20260508202905 | 71 | 207 | 2.6 | 4.3 | 0.00 | 0.00 | 0.00 | 32 | 1013.1 |
| 20260508202403 | 71 | 270 | 2.6 | 5.2 | 0.00 | 0.00 | 0.00 | 32 | 1013.1 |
| 20260508201904 | 71 | 201 | 2.6 | 2.6 | 0.00 | 0.00 | 0.00 | 31 | 1013.1 |
| 20260508201404 | 72 | 214 | 2.6 | 4.3 | 0.00 | 0.00 | 0.00 | 33 | 1013.1 |
| 20260508200904 | 72 | 116 | 3.5 | 6.1 | 0.00 | 0.00 | 0.00 | 31 | 1013.1 |
| 20260508200403 | 72 | 214 | 3.5 | 6.1 | 0.00 | 0.00 | 0.00 | 31 | 1013.4 |
| 20260508195905 | 72 | 175 | 0.9 | 4.3 | 0.00 | 0.00 | 0.00 | 31 | 1013.4 |
| 20260508195404 | 72 | 129 | 1.7 | 5.2 | 0.00 | 0.00 | 0.00 | 33 | 1013.4 |
| 20260508194904 | 72 | 237 | 0.9 | 4.3 | 0.00 | 0.00 | 0.00 | 29 | 1013.4 |
| 20260508193904 | 72 | 187 | 1.7 | 4.3 | 0.00 | 0.00 | 0.00 | 31 | 1013.8 |
| 20260508192904 | 72 | 213 | 1.7 | 2.6 | 0.00 | 0.00 | 0.00 | 35 | 1014.4 |
| 20260508192403 | 72 | 252 | 0.9 | 2.6 | 0.00 | 0.00 | 0.00 | 33 | 1014.4 |
| 20260508191904 | 72 | 205 | 3.5 | 5.2 | 0.00 | 0.00 | 0.00 | 31 | 1014.4 |
| 20260508191404 | 73 | 231 | 1.7 | 2.6 | 0.00 | 0.00 | 0.00 | 30 | 1014.4 |
| 20260508190404 | 72 | 288 | 0.9 | 1.7 | 0.00 | 0.00 | 0.00 | 35 | 1014.4 |
| 20260508185905 | 72 | 218 | 0.0 | 2.6 | 0.00 | 0.00 | 0.00 | 32 | 1014.4 |
| 20260508185404 | 72 | 229 | 0.9 | 2.6 | 0.00 | 0.00 | 0.00 | 30 | 1014.4 |
| 20260508184903 | 72 | 111 | 1.7 | 5.2 | 0.00 | 0.00 | 0.00 | 28 | 1014.4 |
| 20260508184405 | 73 | 113 | 1.7 | 5.2 | 0.00 | 0.00 | 0.00 | 28 | 1014.5 |
| 20260508183904 | 72 | 179 | 1.7 | 6.1 | 0.00 | 0.00 | 0.00 | 30 | 1014.6 |
| 20260508183403 | 72 | 218 | 0.9 | 4.3 | 0.00 | 0.00 | 0.00 | 31 | 1014.7 |
| 20260508182905 | 72 | 167 | 0.9 | 5.2 | 0.00 | 0.00 | 0.00 | 34 | 1015.1 |
| 20260508182404 | 72 | 237 | 2.6 | 5.2 | 0.00 | 0.00 | 0.00 | 29 | 1015.1 |
| 20260508181405 | 71 | 27 | 0.9 | 1.7 | 0.00 | 0.00 | 0.00 | 36 | 1015.1 |
| 20260508180904 | 71 | 255 | 3.5 | 6.1 | 0.00 | 0.00 | 0.00 | 29 | 1015.1 |
| 20260508180403 | 71 | 98 | 0.9 | 6.1 | 0.00 | 0.00 | 0.00 | 28 | 1015.2 |
| 20260508175904 | 71 | 78 | 0.9 | 2.6 | 0.00 | 0.00 | 0.00 | 35 | 1015.6 |
| 20260508174904 | 70 | 97 | 2.6 | 5.2 | 0.00 | 0.00 | 0.00 | 29 | 1015.6 |
| 20260508174404 | 70 | 222 | 1.7 | 5.2 | 0.00 | 0.00 | 0.00 | 27 | 1015.6 |
| 20260508173903 | 71 | 114 | 2.6 | 5.2 | 0.00 | 0.00 | 0.00 | 31 | 1015.6 |
| 20260508173403 | 70 | 135 | 4.3 | 6.1 | 0.00 | 0.00 | 0.00 | 32 | 1015.6 |
| 20260508172905 | 70 | 194 | 2.6 | 6.1 | 0.00 | 0.00 | 0.00 | 34 | 1015.7 |
| 20260508172404 | 70 | 248 | 2.6 | 4.3 | 0.00 | 0.00 | 0.00 | 34 | 1015.7 |
| 20260508171903 | 71 | 166 | 1.7 | 5.2 | 0.00 | 0.00 | 0.00 | 34 | 1015.9 |
| 20260508171405 | 69 | 26 | 0.0 | 2.6 | 0.00 | 0.00 | 0.00 | 38 | 1015.9 |
| 20260508170904 | 69 | 255 | 1.7 | 6.1 | 0.00 | 0.00 | 0.00 | 35 | 1015.9 |
| 20260508165905 | 68 | 100 | 2.6 | 4.3 | 0.00 | 0.00 | 0.00 | 34 | 1016.6 |
| 20260508165404 | 68 | 111 | 1.7 | 5.2 | 0.00 | 0.00 | 0.00 | 38 | 1016.6 |
| 20260508164903 | 68 | 257 | 2.6 | 5.2 | 0.00 | 0.00 | 0.00 | 36 | 1016.6 |
| 20260508164405 | 68 | 104 | 1.7 | 5.2 | 0.00 | 0.00 | 0.00 | 37 | 1016.6 |
| 20260508163903 | 68 | 104 | 0.9 | 5.2 | 0.00 | 0.00 | 0.00 | 41 | 1016.6 |
| 20260508163403 | 68 | 211 | 2.6 | 5.2 | 0.00 | 0.00 | 0.00 | 39 | 1016.6 |
| 20260508162905 | 68 | 123 | 3.5 | 6.1 | 0.00 | 0.00 | 0.00 | 38 | 1016.9 |
| 20260508162404 | 68 | 227 | 1.7 | 2.6 | 0.00 | 0.00 | 0.00 | 37 | 1016.9 |
| 20260508161405 | 67 | 150 | 1.7 | 4.3 | 0.00 | 0.00 | 0.00 | 41 | 1017.2 |
| 20260508160904 | 67 | 144 | 1.7 | 6.1 | 0.00 | 0.00 | 0.00 | 38 | 1017.2 |
| 20260508160404 | 67 | 233 | 1.7 | 4.3 | 0.00 | 0.00 | 0.00 | 41 | 1017.2 |
| 20260508155905 | 67 | 267 | 1.7 | 4.3 | 0.00 | 0.00 | 0.00 | 39 | 1017.3 |
| 20260508155404 | 67 | 104 | 1.7 | 5.2 | 0.00 | 0.00 | 0.00 | 42 | 1017.3 |
| 20260508154904 | 66 | 38 | 0.9 | 5.2 | 0.00 | 0.00 | 0.00 | 43 | 1017.3 |
| 20260508154405 | 65 | 232 | 2.6 | 5.2 | 0.00 | 0.00 | 0.00 | 40 | 1017.3 |
| 20260508153904 | 65 | 222 | 2.6 | 5.2 | 0.00 | 0.00 | 0.00 | 43 | 1017.3 |
| 20260508153404 | 64 | 265 | 2.6 | 6.1 | 0.00 | 0.00 | 0.00 | 41 | 1017.3 |
| 20260508152905 | 64 | 244 | 2.6 | 6.1 | 0.00 | 0.00 | 0.00 | 42 | 1017.7 |
| 20260508152404 | 65 | 252 | 1.7 | 7.0 | 0.00 | 0.00 | 0.00 | 45 | 1017.7 |
| 20260508151904 | 64 | 170 | 0.9 | 4.3 | 0.00 | 0.00 | 0.00 | 46 | 1017.7 |
| 20260508150904 | 64 | 255 | 1.7 | 5.2 | 0.00 | 0.00 | 0.00 | 51 | 1017.7 |
| 20260508150404 | 63 | 144 | 0.9 | 2.6 | 0.00 | 0.00 | 0.00 | 52 | 1017.7 |
| 20260508145907 | 63 | 210 | 2.6 | 5.2 | 0.00 | 0.00 | 0.00 | 51 | 1017.7 |
| 20260508145404 | 64 | 238 | 2.6 | 4.3 | 0.00 | 0.00 | 0.00 | 48 | 1017.7 |
| 20260508144403 | 64 | 116 | 2.6 | 2.6 | 0.00 | 0.00 | 0.00 | 53 | 1017.8 |
| 20260508143905 | 64 | 98 | 1.7 | 2.6 | 0.00 | 0.00 | 0.00 | 57 | 1017.6 |
| 20260508142904 | 63 | 102 | 0.9 | 2.6 | 0.00 | 0.00 | 0.00 | 61 | 1017.7 |
| 20260508142405 | 62 | 240 | 0.9 | 2.6 | 0.00 | 0.00 | 0.00 | 57 | 1017.7 |
| 20260508141904 | 63 | 91 | 2.6 | 4.3 | 0.00 | 0.00 | 0.00 | 57 | 1017.8 |
| 20260508141404 | 63 | 64 | 0.9 | 2.6 | 0.00 | 0.00 | 0.00 | 58 | 1017.8 |
| 20260508140905 | 62 | 39 | 0.9 | 1.7 | 0.00 | 0.00 | 0.00 | 60 | 1017.8 |
| 20260508140403 | 62 | 84 | 0.9 | 2.6 | 0.00 | 0.00 | 0.00 | 59 | 1017.8 |
| 20260508135903 | 61 | 93 | 0.9 | 2.6 | 0.00 | 0.00 | 0.00 | 63 | 1017.8 |
| 20260508135404 | 61 | 132 | 1.7 | 2.6 | 0.00 | 0.00 | 0.00 | 64 | 1017.8 |
| 20260508134404 | 61 | 97 | 0.9 | 2.6 | 0.00 | 0.00 | 0.00 | 64 | 1017.8 |
| 20260508133905 | 61 | 110 | 0.0 | 0.0 | 0.00 | 0.00 | 0.00 | 64 | 1017.8 |
| 20260508133404 | 60 | 110 | 0.0 | 0.0 | 0.00 | 0.00 | 0.00 | 67 | 1017.6 |
| 20260508132904 | 59 | 110 | 0.0 | 0.0 | 0.00 | 0.00 | 0.00 | 68 | 1017.6 |
| 20260508132405 | 59 | 110 | 0.0 | 0.0 | 0.00 | 0.00 | 0.00 | 66 | 1017.6 |
| 20260508131904 | 58 | 110 | 0.9 | 1.7 | 0.00 | 0.00 | 0.00 | 67 | 1017.6 |
| 20260508131404 | 57 | 110 | 0.0 | 0.9 | 0.00 | 0.00 | 0.00 | 70 | 1017.9 |
| 20260508130404 | 54 | 110 | 0.9 | 1.7 | 0.00 | 0.00 | 0.00 | 73 | 1017.9 |
| 20260508125903 | 53 | 110 | 0.9 | 1.7 | 0.00 | 0.00 | 0.00 | 74 | 1017.9 |
| 20260508125405 | 52 | 111 | 0.9 | 1.7 | 0.00 | 0.00 | 0.00 | 78 | 1017.9 |
| 20260508124904 | 51 | 273 | 0.9 | 0.9 | 0.00 | 0.00 | 0.00 | 80 | 1017.9 |
| 20260508124404 | 51 | 273 | 0.9 | 1.7 | 0.00 | 0.00 | 0.00 | 83 | 1017.9 |
| 20260508123904 | 50 | 273 | 0.9 | 1.7 | 0.00 | 0.00 | 0.00 | 86 | 1017.9 |
| 20260508123405 | 50 | 273 | 0.0 | 1.7 | 0.00 | 0.00 | 0.00 | 87 | 1017.9 |
| 20260508122904 | 49 | 273 | 0.0 | 0.0 | 0.00 | 0.00 | 0.00 | 88 | 1017.6 |
| 20260508122404 | 49 | 273 | 0.0 | 0.0 | 0.00 | 0.00 | 0.00 | 88 | 1017.6 |
| 20260508121405 | 48 | 273 | 0.0 | 0.0 | 0.00 | 0.00 | 0.00 | 88 | 1017.4 |
| 20260508120904 | 47 | 273 | 0.0 | 0.9 | 0.00 | 0.00 | 0.00 | 88 | 1017.4 |
| 20260508120404 | 47 | 273 | 0.0 | 0.9 | 0.00 | 0.00 | 0.00 | 88 | 1017.4 |
| 20260508115905 | 47 | 273 | 0.0 | 0.9 | 0.00 | 0.00 | 0.00 | 88 | 1016.7 |
| 20260508115403 | 47 | 273 | 0.0 | 0.0 | 0.00 | 0.01 | 0.00 | 87 | 1016.7 |
| 20260508114904 | 46 | 273 | 0.0 | 0.0 | 0.00 | 0.01 | 0.00 | 87 | 1016.7 |
| 20260508114405 | 46 | 273 | 0.0 | 0.0 | 0.00 | 0.01 | 0.00 | 87 | 1016.7 |
| 20260508113904 | 46 | 273 | 0.0 | 0.0 | 0.00 | 0.02 | 0.00 | 87 | 1016.7 |
| 20260508113404 | 46 | 273 | 0.0 | 0.0 | 0.00 | 0.02 | 0.00 | 87 | 1016.7 |
| 20260508112404 | 46 | 273 | 0.0 | 0.0 | 0.00 | 0.02 | 0.00 | 87 | 1016.4 |
| 20260508111904 | 46 | 273 | 0.0 | 0.0 | 0.00 | 0.02 | 0.00 | 87 | 1016.4 |
| 20260508111405 | 46 | 273 | 0.0 | 0.0 | 0.00 | 0.02 | 0.00 | 87 | 1016.2 |
| 20260508110404 | 45 | 273 | 0.0 | 0.0 | 0.00 | 0.05 | 0.00 | 87 | 1016.2 |
| 20260508105405 | 46 | 273 | 0.0 | 0.0 | 0.00 | 0.09 | 0.00 | 86 | 1016.1 |
| 20260508104403 | 45 | 273 | 0.0 | 0.0 | 0.00 | 0.10 | 0.00 | 86 | 1015.7 |
| 20260508103904 | 45 | 273 | 0.0 | 0.0 | 0.00 | 0.11 | 0.00 | 86 | 1015.7 |
| 20260508102903 | 46 | 273 | 0.0 | 0.0 | 0.00 | 0.13 | 0.00 | 86 | 1015.3 |
| 20260508102404 | 46 | 273 | 0.0 | 0.0 | 0.00 | 0.14 | 0.00 | 86 | 1015.3 |
| 20260508101902 | 46 | 273 | 0.0 | 0.0 | 0.00 | 0.16 | 0.00 | 86 | 1015.3 |
| 20260508101402 | 46 | 273 | 0.0 | 0.0 | 0.00 | 0.17 | 0.00 | 86 | 1015.3 |
| 20260508100903 | 46 | 273 | 0.0 | 0.0 | 0.00 | 0.17 | 0.00 | 86 | 1015.3 |
| 20260508100403 | 46 | 273 | 0.0 | 0.0 | 0.00 | 0.17 | 0.00 | 86 | 1015.3 |
| 20260508095902 | 46 | 273 | 0.0 | 0.0 | 0.00 | 0.18 | 0.00 | 86 | 1015.3 |
| 20260508095403 | 46 | 273 | 0.0 | 0.0 | 0.00 | 0.19 | 0.00 | 86 | 1015.3 |
| 20260508094402 | 46 | 273 | 0.0 | 0.0 | 0.00 | 0.20 | 0.00 | 86 | 1015.1 |
| 20260508093903 | 46 | 273 | 0.0 | 0.0 | 0.00 | 0.22 | 0.00 | 86 | 1015.1 |
| 20260508093402 | 46 | 273 | 0.0 | 0.0 | 0.00 | 0.24 | 0.00 | 86 | 1015.1 |
| 20260508092903 | 46 | 273 | 0.0 | 0.0 | 0.00 | 0.30 | 0.00 | 86 | 1015.1 |
| 20260508092402 | 46 | 273 | 0.0 | 0.0 | 0.00 | 0.32 | 0.00 | 86 | 1015.1 |
| 20260508091903 | 46 | 273 | 0.0 | 0.0 | 0.00 | 0.32 | 0.00 | 86 | 1015.1 |
| 20260508090403 | 46 | 273 | 0.0 | 0.9 | 0.00 | 0.32 | 0.00 | 86 | 1015.1 |
| 20260508085902 | 46 | 273 | 0.0 | 0.0 | 0.00 | 0.32 | 0.00 | 86 | 1015.1 |
| 20260508085403 | 46 | 273 | 0.0 | 0.0 | 0.00 | 0.33 | 0.00 | 86 | 1015.1 |
| 20260508084903 | 47 | 273 | 0.0 | 0.0 | 0.00 | 0.35 | 0.00 | 86 | 1015.1 |
| 20260508084402 | 46 | 273 | 0.0 | 0.0 | 0.00 | 0.36 | 0.00 | 86 | 1015.0 |
| 20260508083904 | 47 | 273 | 0.0 | 0.9 | 0.00 | 0.36 | 0.00 | 86 | 1015.0 |
| 20260508083402 | 47 | 273 | 0.0 | 0.9 | 0.00 | 0.36 | 0.00 | 86 | 1015.0 |
| 20260508082903 | 47 | 273 | 0.0 | 0.9 | 0.00 | 0.36 | 0.00 | 86 | 1015.0 |
| 20260508082404 | 47 | 273 | 0.0 | 0.0 | 0.00 | 0.36 | 0.00 | 86 | 1015.0 |
| 20260508081903 | 47 | 273 | 0.0 | 0.0 | 0.00 | 0.36 | 0.00 | 86 | 1015.0 |
| 20260508081403 | 47 | 273 | 0.0 | 0.0 | 0.00 | 0.36 | 0.00 | 86 | 1015.2 |
| 20260508080903 | 47 | 273 | 0.0 | 0.0 | 0.00 | 0.36 | 0.00 | 86 | 1015.2 |
| 20260508080403 | 47 | 273 | 0.0 | 0.0 | 0.00 | 0.36 | 0.00 | 86 | 1015.2 |
| 20260508074903 | 47 | 273 | 0.0 | 0.0 | 0.00 | 0.38 | 0.00 | 86 | 1015.2 |
| 20260508074403 | 47 | 273 | 0.0 | 0.0 | 0.00 | 0.38 | 0.00 | 86 | 1015.2 |
| 20260508073904 | 47 | 273 | 0.0 | 0.0 | 0.00 | 0.38 | 0.00 | 86 | 1015.2 |
| 20260508073403 | 47 | 273 | 0.0 | 0.0 | 0.00 | 0.38 | 0.00 | 86 | 1015.2 |
| 20260508072902 | 48 | 273 | 0.0 | 0.0 | 0.00 | 0.38 | 0.00 | 85 | 1015.1 |
| 20260508072404 | 48 | 273 | 0.0 | 0.0 | 0.00 | 0.38 | 0.00 | 85 | 1015.1 |
| 20260508071903 | 48 | 273 | 0.0 | 0.0 | 0.00 | 0.38 | 0.00 | 86 | 1015.1 |
| 20260508071403 | 48 | 273 | 0.0 | 0.0 | 0.00 | 0.38 | 0.00 | 86 | 1015.3 |
| 20260508070902 | 48 | 273 | 0.0 | 0.0 | 0.00 | 0.38 | 0.00 | 86 | 1015.3 |
| 20260508070404 | 48 | 273 | 0.0 | 0.0 | 0.00 | 0.38 | 0.00 | 86 | 1015.3 |
| 20260508065903 | 48 | 273 | 0.0 | 0.9 | 0.00 | 0.38 | 0.00 | 85 | 1015.4 |
| 20260508065403 | 48 | 273 | 0.0 | 0.0 | 0.00 | 0.38 | 0.00 | 85 | 1015.4 |
| 20260508064904 | 48 | 273 | 0.0 | 0.0 | 0.00 | 0.38 | 0.00 | 85 | 1015.4 |
| 20260508064403 | 48 | 273 | 0.0 | 0.0 | 0.00 | 0.39 | 0.00 | 85 | 1015.4 |
| 20260508063903 | 49 | 273 | 0.0 | 0.9 | 0.00 | 0.39 | 0.00 | 85 | 1015.4 |
| 20260508063404 | 49 | 273 | 0.0 | 0.0 | 0.00 | 0.39 | 0.00 | 85 | 1015.4 |
| 20260508062902 | 49 | 273 | 0.0 | 0.0 | 0.00 | 0.39 | 0.00 | 85 | 1015.5 |
| 20260508062402 | 49 | 273 | 0.0 | 0.9 | 0.00 | 0.39 | 0.00 | 85 | 1015.7 |
| 20260508061904 | 49 | 273 | 0.0 | 0.0 | 0.00 | 0.39 | 0.00 | 85 | 1015.7 |
| 20260508060903 | 49 | 273 | 0.0 | 0.0 | 0.00 | 0.39 | 0.00 | 85 | 1015.6 |
| 20260508060404 | 49 | 273 | 0.0 | 0.0 | 0.00 | 0.39 | 0.00 | 85 | 1015.5 |
| 20260508055902 | 49 | 273 | 0.0 | 0.9 | 0.00 | 0.39 | 0.00 | 85 | 1015.5 |